Flag for Canada Weather past 2 weeks in Brampton, Ontario, Canada

Now
18 °F

Passing clouds.


Feels Like: 3 °F
Forecast: 14 / 30 °F
Wind: 15 mph from North

Location: Toronto Pearson International Airport

Current Time: Mar 28, 2015 at 11:05:10 AM

Latest Report: Mar 28, 2015 at 10:00 AM


Visibility: 15 mi

Pressure: 30.22 "Hg

Humidity: 41%

Dew point: -2 °F

Location of BramptonLocation

Historic Weather in Brampton — Graph

°F

Brampton temperature yesterday

Maximum temperature yesterday: 34 °F (at 12:00 AM)
Minimum temperature yesterday: 19 °F (at 7:00 PM)
Average temperature yesterday: 26 °F

Past Weeks' High & Low Weather Summary

 TemperatureHumidityPressure
High54 °F (Mar 16, 4:00 PM)100% (Mar 14, 7:00 AM)30.45 "Hg (Mar 14, 7:00 AM)
Low12 °F (Mar 23, 7:00 AM)27% (Mar 17, 2:00 PM)29.67 "Hg (Mar 17, 2:00 AM)
Average31 °F63%30.08 "Hg
* Reported Mar 13 10:00 AM — Mar 28 10:00 AM, Brampton, Weather by CustomWeather, © 2015

Note: Actual official high and low records may vary slightly from our data, if they occured in-between our weather recording intervals... More about our weather records

Advertising

Brampton weather history for previous 24 hours

 ConditionsComfort  
Time TempWeatherWind HumidityBarometerVisibility
10:00 AM
Sat, Mar 28
18 °FPassing clouds.15 mph41%30.22 "Hg15 mi
9:00 AM16 °FPassing clouds.20 mph45%30.21 "Hg15 mi
8:00 AM14 °FPassing clouds.14 mph52%30.19 "Hg15 mi
7:00 AM12 °FPassing clouds.16 mph57%30.16 "Hg15 mi
6:00 AM12 °FPassing clouds.18 mph62%30.14 "Hg15 mi
5:00 AM14 °FPassing clouds.20 mph57%30.12 "Hg15 mi
4:00 AM16 °FPassing clouds.15 mph53%30.11 "Hg15 mi
3:00 AM16 °FPartly cloudy.16 mph57%30.10 "Hg15 mi
2:00 AM18 °FOvercast.20 mph49%30.09 "Hg15 mi
1:00 AM19 °FOvercast.15 mph49%30.09 "Hg15 mi
12:00 AM19 °FPartly cloudy.17 mph53%30.08 "Hg15 mi
11:00 PM
Fri, Mar 27
19 °FPassing clouds.17 mph58%30.06 "Hg15 mi
10:00 PM19 °FPassing clouds.17 mph58%30.06 "Hg15 mi
9:00 PM19 °FOvercast.18 mph58%30.04 "Hg15 mi
8:00 PM19 °FOvercast.20 mph63%30.03 "Hg15 mi
7:00 PM19 °FPartly sunny.21 mph58%30.01 "Hg15 mi
6:00 PM21 °FBroken clouds.22 mph58%29.98 "Hg15 mi
5:00 PM23 °FBroken clouds.23 mph58%29.96 "Hg15 mi
4:00 PM25 °FBroken clouds.22 mph54%29.94 "Hg15 mi
3:00 PM27 °FBroken clouds.21 mph54%29.93 "Hg15 mi
2:00 PM25 °FMore clouds than sun.22 mph59%29.94 "Hg15 mi
1:00 PM27 °FMostly cloudy.15 mph59%29.93 "Hg15 mi
12:00 PM27 °FBroken clouds.20 mph59%29.92 "Hg15 mi
11:00 AM25 °FBroken clouds.18 mph69%29.93 "Hg15 mi
Weather by CustomWeather, © 2015

See weather overviewHow to use our weather pages